Skip Page Navigation
NASA JPL Caltech
NASA Logo - Jet Propulsion Laboratory + View the NASA Portal
+ Near-Earth Object (NEO) Program
Search JPL
JPL Home Earth Solar System Stars & Galaxies Technology
JPL Solar System Dynamics
BODIES ORBITS EPHEMERIDES TOOLS PHYSICAL DATA DISCOVERY FAQ SITE MAP
JPL Small-Body Database Browser
Search: [ help ]  
1448 Lindbladia (1938 DF)
Classification: Main-belt Asteroid          SPK-ID: 2001448
Ephemeris | Orbit Diagram | Orbital Elements | Physical Parameters | Discovery Circumstances ]

[ hide orbit diagram ]
Orbit Diagram
Note: Make sure you have Java enabled on your browser to see the applet. This applet is provided as a 3D orbit visualization tool. The applet was implemented using 2-body methods, and hence should not be used for determining accurate long-term trajectories (over several years or decades) or planetary encounter circumstances. For accurate long-term ephemerides, please instead use our Horizons system.
Orbit Viewer

Additional Notes: the orbits shown in the applet are color coded. The planets are white lines, and the asteroid/comet is a blue line. The bright white line indicates the portion of the orbit that is above the ecliptic plane, and the darker portion is below the ecliptic plane. Likewise for the asteroid/comet orbit, the light blue indicates the portion above the ecliptic plane, and the dark blue the portion below the ecliptic plane.

Orbit Viewer applet originally written and kindly provided by Osamu Ajiki (AstroArts), and further modified by Ron Baalke (JPL).


Orbital Elements at Epoch 2456400.5 (2013-Apr-18.0) TDB
Reference: MPO233518 (heliocentric ecliptic J2000)
 Element Value Uncertainty (1-sigma)   Units 
e 0.1844375 n/a  
a 2.3729718 n/a AU
q 1.9353068 n/a AU
i 5.81950 n/a deg
node 44.93843 n/a deg
peri 74.73038 n/a deg
M 215.87974 n/a deg
tp 2456935.0149262
(2014-Oct-04.51492620)
n/a JED
period 1335.1722611
3.66
n/a
n/a
d
yr
n 0.26962813 n/a deg/d
Q 2.8106368 n/a AU
  Orbit Determination Parameters
   # obs. used (total)      971  
   first obs. used      1938-??-??  
   last obs. used      2012-06-24  
   # oppositions      26  
   planetary ephem.      DE403  
   condition code      0  
   fit RMS      0.55  
   data source      MPC:mpn  
   producer      MPCLINUX  

Additional Information
 T_jup = 3.513 

Ephemeris | Orbit Diagram | Orbital Elements | Physical Parameters | Discovery Circumstances ]

Physical Parameter Table
Parameter Symbol Value Units Sigma Reference Notes
absolute magnitude H 12.60 mag n/a IRAS-A-FPA-3-RDR-IMPS-V6.0 IRAS observations used: 2
diameter diameter 20.65 km 1.4 IRAS-A-FPA-3-RDR-IMPS-V6.0 IRAS observations used: 2
rotation period rot_per 10.969 h n/a Asteroid Lightcurve DataBase (Rev. 2013-May-01) Published Reference List:
[Ferrero, A. (2011) Minor Planet Bul. 38, 92-93.]
geometric albedo albedo 0.0378   0.006 IRAS-A-FPA-3-RDR-IMPS-V6.0 IRAS observations used: 2

1448 Lindbladia (1938 DF)          Discovered 1938-Feb-16 by Vaisala, Y. at Turku
Reference: DISCOVERY.DBLast Updated: 2003-08-29

Alternate Designations
 1938 DF = 1949 BK = 1964 JG 
Ephemeris | Orbit Diagram | Orbital Elements | Physical Parameters | Discovery Circumstances ]
ABOUT SSD CREDITS/AWARDS PRIVACY/COPYRIGHT GLOSSARY LINKS
FirstGov 2013-May-25 05:52 UT
(server date/time)  
NASA Home Page
Site Manager:   Donald K. Yeomans
Webmaster  Alan B. Chamberlin